28 mai 2022

Temps Code Temps Temp. Vue Base cloud Vent METAR/SPECI
6:55 pm
V
55 °F 6¼ mi+ 6.800 ft 340° 340° 10 kt METAR EHDL 281655Z AUTO 34010KT 280V040 9999 FEW030 BKN068 13/05 Q1020 BLU
6:25 pm
V
55 °F 6¼ mi+ 6.700 ft 350° 350° 13 kt METAR EHDL 281625Z AUTO 35013KT 270V020 9999 FEW039 BKN067 13/06 Q1020 BLU
5:55 pm
V
57 °F 6¼ mi+ 3.700 ft 330° 330° 11 kt METAR EHDL 281555Z AUTO 33011KT 270V050 9999 BKN037 BKN041 OVC066 14/04 Q1020 BLU
5:25 pm
V
55 °F 6¼ mi+ 4.700 ft 350° 350° 10 kt METAR EHDL 281525Z AUTO 35010KT 290V060 9999 SCT042 BKN047 BKN051 13/06 Q1020 BLU
4:55 pm
V
55 °F 6¼ mi+ 3.900 ft 330° 330° 12 kt METAR EHDL 281455Z AUTO 33012KT 280V070 9999 FEW034 BKN039 BKN045 13/05 Q1020 BLU
4:25 pm
V
57 °F 6¼ mi+ 6.000 ft 320° 320° 13 kt METAR EHDL 281425Z AUTO 32013KT 230V030 9999 FEW041 BKN060 OVC067 14/04 Q1020 BLU
3:55 pm
V
61 °F 6¼ mi+ 6.200 ft 320° 320° 14 kt METAR EHDL 281355Z AUTO 32014KT 270V050 9999 SCT052 BKN062 16/01 Q1020 BLU
3:25 pm
V
59 °F 6¼ mi+ 4.400 ft 320° 320° 15 kt METAR EHDL 281325Z AUTO 32015KT 240V010 9999 BKN044 BKN052 OVC063 15/04 Q1020 BLU
2:55 pm
V
59 °F 6¼ mi+ 5.300 ft 310° 310° 14 kt METAR EHDL 281255Z AUTO 31014KT 270V030 9999 SCT049 BKN053 BKN060 15/02 Q1020 BLU
2:25 pm
V
59 °F 6¼ mi+ 5.900 ft Var Var 15 kt METAR EHDL 281225Z AUTO VRB15KT 9999 SCT052 BKN059 15/02 Q1021 BLU
1:55 pm
V
61 °F 6¼ mi+ - 330° 330° 12 kt METAR EHDL 281155Z AUTO 33012KT 240V030 9999 FEW057 16/02 Q1021 BLU
1:25 pm
V
59 °F 6¼ mi+ 5.200 ft 310° 310° 13 kt METAR EHDL 281125Z AUTO 31013KT 220V010 9999 FEW048 BKN052 BKN060 15/03 Q1021 BLU
12:55 pm
V
57 °F 6¼ mi+ 4.600 ft 320° 320° 10 kt METAR EHDL 281055Z AUTO 32010KT 270V050 9999 SCT042 BKN046 BKN056 14/03 Q1021 BLU
12:25 pm
V
59 °F 6¼ mi+ - 320° 320° 13 kt METAR EHDL 281025Z AUTO 32013KT 260V020 9999 FEW043 15/04 Q1021 BLU
11:55 am
V
59 °F 6¼ mi+ - 330° 330° 11 kt METAR EHDL 280955Z AUTO 33011KT 260V050 9999 FEW054 15/03 Q1021 BLU
11:25 am
V
59 °F 6¼ mi+ - 340° 340° 12 kt METAR EHDL 280925Z AUTO 34012KT 260V020 9999 FEW043 SCT050 15/03 Q1021 BLU
10:55 am
V
55 °F 6¼ mi+ 4.300 ft 310° 310° 12 kt METAR EHDL 280855Z AUTO 31012KT 240V010 9999 SCT038 BKN043 BKN047 13/04 Q1021 BLU
10:25 am
V
57 °F 6¼ mi+ - 330° 330° 13 kt METAR EHDL 280825Z AUTO 33013KT 280V040 9999 NCD 14/05 Q1021 BLU
9:55 am
V
55 °F 6¼ mi+ 3.600 ft 300° 300° 13 kt METAR EHDL 280755Z AUTO 30013KT 240V050 9999 FEW029 BKN036 BKN043 13/06 Q1021 BLU
9:25 am
V
55 °F 6¼ mi+ 3.600 ft 290° 290° 12 kt METAR EHDL 280725Z AUTO 29012KT 230V040 9999 FEW031 BKN036 BKN041 13/06 Q1021 BLU
8:55 am
V
55 °F 6¼ mi+ - Var Var 11 kt METAR EHDL 280655Z AUTO VRB11KT 9999 FEW031 SCT042 13/06 Q1021 BLU
8:25 am
V
55 °F 6¼ mi+ - 310° 310° 12 kt METAR EHDL 280625Z AUTO 31012KT 270V010 9999 FEW028 13/06 Q1021 BLU
7:55 am
V
54 °F 6¼ mi+ - Var Var 11 kt METAR EHDL 280555Z AUTO VRB11KT 9999 FEW028 12/06 Q1021 BLU
7:25 am
V
52 °F 6¼ mi+ - 300° 300° 7 kt METAR EHDL 280525Z AUTO 30007KT 250V010 9999 NCD 11/07 Q1021 BLU
6:55 am
M
50 °F 6¼ mi+ 2.600 ft 300° 300° 5 kt METAR EHDL 280455Z AUTO 30005KT 260V040 9999 SCT023 BKN026 BKN030 10/07 Q1021 WHT
6:25 am
V
48 °F 6¼ mi+ - 300° 300° 4 kt METAR EHDL 280425Z AUTO 30004KT 270V010 9999 NCD 09/07 Q1021 BLU
5:55 am
V
46 °F 6¼ mi+ - 280° 280° 4 kt METAR EHDL 280355Z AUTO 28004KT 250V330 9999 NCD 08/07 Q1020 BLU
5:25 am
V
46 °F 6¼ mi+ - 280° 280° 5 kt METAR EHDL 280325Z AUTO 28005KT 240V350 9999 NCD 08/07 Q1020 BLU
4:55 am
V
48 °F 6¼ mi+ - 260° 260° 5 kt METAR EHDL 280255Z AUTO 26005KT 240V340 9999 NCD 09/07 Q1020 BLU
4:25 am
V
48 °F 6¼ mi+ - 270° 270° 5 kt METAR EHDL 280225Z AUTO 27005KT 230V340 9999 NCD 09/07 Q1020 BLU
3:55 am
V
48 °F 6¼ mi+ - 260° 260° 6 kt METAR EHDL 280155Z AUTO 26006KT 220V320 9999 NCD 09/07 Q1020 BLU
3:25 am
V
46 °F 6¼ mi+ - 240° 240° 7 kt METAR EHDL 280125Z AUTO 24007KT 190V300 9999 NCD 08/07 Q1020 BLU
2:55 am
V
46 °F 6¼ mi+ - 250° 250° 5 kt METAR EHDL 280055Z AUTO 25005KT 200V300 9999 NCD 08/06 Q1020 BLU
2:25 am
V
48 °F 6¼ mi+ - 250° 250° 6 kt METAR EHDL 280025Z AUTO 25006KT 220V310 9999 NCD 09/06 Q1021 BLU RMK CB INFO NOT AVBL
1:55 am
V
50 °F 6¼ mi+ - 260° 260° 6 kt METAR EHDL 272355Z AUTO 26006KT 200V330 9999 NCD 10/07 Q1021 BLU
1:25 am
V
50 °F 6¼ mi+ - 250° 250° 7 kt METAR EHDL 272325Z AUTO 25007KT 190V330 9999 SCT076 10/07 Q1021 BLU
12:55 am
V
52 °F 6¼ mi+ - 260° 260° 7 kt METAR EHDL 272255Z AUTO 26007KT 230V340 9999 SCT043 11/07 Q1021 BLU
12:25 am
V
50 °F 6¼ mi+ 6.900 ft 240° 240° 6 kt METAR EHDL 272225Z AUTO 24006KT 200V300 9999 FEW023 BKN069 OVC074 10/07 Q1021 BLU

27 mai 2022

Temps Code Temps Temp. Vue Base cloud Vent METAR/SPECI
11:55 pm
V
48 °F 6¼ mi+ 7.500 ft 230° 230° 5 kt METAR EHDL 272155Z AUTO 23005KT 170V280 9999 OVC075 09/07 Q1022 BLU
11:25 pm
V
50 °F 6¼ mi+ 7.100 ft 260° 260° 6 kt METAR EHDL 272125Z AUTO 26006KT 200V310 9999 FEW045 SCT063 BKN071 10/06 Q1022 BLU
10:55 pm
V
50 °F 6¼ mi+ - 260° 260° 6 kt METAR EHDL 272055Z AUTO 26006KT 190V310 9999 FEW055 10/06 Q1022 BLU
10:25 pm
V
50 °F 6¼ mi+ 3.700 ft 250° 250° 4 kt METAR EHDL 272025Z AUTO 25004KT 180V260 9999 BKN037 BKN045 BKN060 10/06 Q1022 BLU
9:55 pm
V
52 °F 6¼ mi+ 5.200 ft 250° 250° 4 kt METAR EHDL 271955Z AUTO 25004KT 230V310 9999 FEW042 SCT048 BKN052 11/06 Q1022 BLU
9:25 pm
V
55 °F 6¼ mi+ - 280° 280° 5 kt METAR EHDL 271925Z AUTO 28005KT 230V360 9999 FEW038 SCT042 13/06 Q1022 BLU
8:55 pm
V
55 °F 6¼ mi+ - 290° 290° 7 kt METAR EHDL 271855Z AUTO 29007KT 250V020 9999 SCT038 13/05 Q1022 BLU
8:25 pm
V
57 °F 6¼ mi+ - 300° 300° 12 kt METAR EHDL 271825Z AUTO 30012KT 230V350 9999 NCD 14/05 Q1022 BLU
7:55 pm
V
57 °F 6¼ mi+ - 300° 300° 13 kt METAR EHDL 271755Z AUTO 30013KT 240V360 9999 FEW056 14/05 Q1022 BLU
7:25 pm
V
57 °F 6¼ mi+ 5.400 ft 300° 300° 12 kt METAR EHDL 271725Z AUTO 30012KT 230V350 9999 SCT049 BKN054 14/05 Q1022 BLU
6:55 pm
V
57 °F 6¼ mi+ 5.100 ft 300° 300° 12 kt METAR EHDL 271655Z AUTO 30012KT 220V010 9999 FEW045 OVC051 14/05 Q1022 BLU
6:25 pm
V
59 °F 6¼ mi+ 5.200 ft 300° 300° 13 kt METAR EHDL 271625Z AUTO 30013KT 230V010 9999 FEW042 SCT048 BKN052 15/06 Q1022 BLU
5:55 pm
V
59 °F 6¼ mi+ - 300° 300° 14 - 24 kt METAR EHDL 271555Z AUTO 30014G24KT 220V360 9999 FEW040 SCT049 15/05 Q1022 BLU
5:25 pm
V
57 °F 6¼ mi+ 3.600 ft 310° 310° 11 kt METAR EHDL 271525Z AUTO 31011KT 250V010 9999 BKN036 OVC041 14/05 Q1022 BLU
4:55 pm
V
61 °F 6¼ mi+ 4.400 ft 280° 280° 16 kt METAR EHDL 271455Z AUTO 28016KT 210V020 9999 SCT039 BKN044 OVC049 16/06 Q1022 BLU
4:25 pm
V
59 °F 6¼ mi+ 4.100 ft 270° 270° 16 kt METAR EHDL 271425Z AUTO 27016KT 230V020 9999 BKN041 BKN051 15/05 Q1021 BLU
3:55 pm
V
59 °F 6¼ mi+ 4.100 ft 270° 270° 16 kt METAR EHDL 271355Z AUTO 27016KT 220V010 9999 BKN041 BKN047 BKN056 15/05 Q1021 BLU
3:25 pm
V
61 °F 6¼ mi+ 4.300 ft 280° 280° 14 kt METAR EHDL 271325Z AUTO 28014KT 220V360 9999 OVC043 16/05 Q1021 BLU
2:55 pm
V
61 °F 6¼ mi+ 4.500 ft 290° 290° 15 - 25 kt METAR EHDL 271255Z AUTO 29015G25KT 230V360 9999 BKN045 BKN050 16/05 Q1021 BLU
2:25 pm
V
63 °F 6¼ mi+ 4.300 ft 290° 290° 16 kt METAR EHDL 271225Z AUTO 29016KT 210V330 9999 BKN043 BKN053 17/04 Q1021 BLU
1:55 pm
V
61 °F 6¼ mi+ 5.300 ft 280° 280° 14 kt METAR EHDL 271155Z AUTO 28014KT 200V350 9999 SCT047 BKN053 16/03 Q1021 BLU
1:25 pm
V
61 °F 6¼ mi+ 4.300 ft 270° 270° 15 kt METAR EHDL 271125Z AUTO 27015KT 210V350 9999 BKN043 BKN047 16/04 Q1020 BLU
12:55 pm
V
63 °F 6¼ mi+ - 270° 270° 15 kt METAR EHDL 271055Z AUTO 27015KT 210V350 9999 SCT047 17/05 Q1020 BLU
12:25 pm
V
61 °F 6¼ mi+ - 270° 270° 17 kt METAR EHDL 271025Z AUTO 27017KT 210V360 9999 SCT043 SCT048 16/04 Q1020 BLU
11:55 am
V
61 °F 6¼ mi+ - 290° 290° 16 kt METAR EHDL 270955Z AUTO 29016KT 210V360 9999 FEW043 SCT370 16/06 Q1020 BLU
11:25 am
V
61 °F 6¼ mi+ 37.000 ft 290° 290° 16 kt METAR EHDL 270925Z AUTO 29016KT 230V360 9999 FEW050 BKN370 16/06 Q1020 BLU
10:55 am
V
61 °F 6¼ mi+ - 300° 300° 16 kt METAR EHDL 270855Z AUTO 30016KT 190V350 9999 FEW032 16/08 Q1020 BLU
10:25 am
V
59 °F 6¼ mi+ 4.100 ft 300° 300° 12 kt METAR EHDL 270825Z AUTO 30012KT 240V360 9999 SCT037 BKN041 BKN056 15/07 Q1020 BLU
9:55 am
V
57 °F 6¼ mi+ 4.400 ft 300° 300° 10 kt METAR EHDL 270755Z AUTO 30010KT 230V360 9999 FEW031 SCT036 BKN044 14/07 Q1020 BLU
9:25 am
V
57 °F 6¼ mi+ 3.400 ft 300° 300° 10 kt METAR EHDL 270725Z AUTO 30010KT 240V020 9999 FEW029 BKN034 OVC038 14/06 Q1020 BLU
8:55 am
V
57 °F 6¼ mi+ 5.700 ft 290° 290° 12 kt METAR EHDL 270655Z AUTO 29012KT 250V010 9999 FEW021 SCT024 BKN057 14/08 Q1019 WHT
8:25 am
V
57 °F 6¼ mi+ 5.400 ft 280° 280° 9 kt METAR EHDL 270625Z AUTO 28009KT 200V340 9999 OVC054 14/12 Q1019 BLU
7:55 am
V
57 °F 6¼ mi+ 5.900 ft 270° 270° 7 kt METAR EHDL 270555Z AUTO 27007KT 210V350 9999 BKN059 14/12 Q1019 BLU
7:25 am
V
55 °F 6¼ mi+ 36.000 ft 270° 270° 6 kt METAR EHDL 270525Z AUTO 27006KT 210V020 9999 SCT060 BKN360 13/11 Q1019 BLU
6:55 am
V
54 °F 6¼ mi+ - 250° 250° 5 kt METAR EHDL 270455Z AUTO 25005KT 210V320 9999 FEW061 SCT350 12/11 Q1019 BLU
6:25 am
V
54 °F 6¼ mi+ 32.000 ft 250° 250° 6 kt METAR EHDL 270425Z AUTO 25006KT 190V300 9999 SCT047 OVC320 12/11 Q1019 BLU
5:55 am
V
54 °F 6¼ mi+ 31.000 ft 250° 250° 5 kt METAR EHDL 270355Z AUTO 25005KT 210V310 9999 OVC310 12/11 Q1019 BLU
5:25 am
V
54 °F 6¼ mi+ 5.900 ft 250° 250° 5 kt METAR EHDL 270325Z AUTO 25005KT 200V290 9999 OVC059 12/11 Q1018 BLU
4:55 am
V
54 °F 6¼ mi+ 5.800 ft 260° 260° 5 kt METAR EHDL 270255Z AUTO 26005KT 220V310 9999 BKN058 OVC320 12/11 Q1019 BLU
4:25 am
V
55 °F 6¼ mi+ 8.600 ft 260° 260° 5 kt METAR EHDL 270225Z AUTO 26005KT 220V320 9999 BKN086 OVC091 13/12 Q1018 BLU
3:55 am
V
55 °F 6¼ mi+ 4.400 ft 260° 260° 6 kt METAR EHDL 270155Z AUTO 26006KT 230V320 9999 OVC044 13/12 Q1018 BLU
3:25 am
V
55 °F 6¼ mi+ 3.000 ft 270° 270° 7 kt METAR EHDL 270125Z AUTO 27007KT 200V320 9999 DZ FEW008 FEW015CB SCT021 BKN030 13/12 Q1019 WHT
2:55 am
M
55 °F 3⅛ mi 2.400 ft 290° 290° 10 kt METAR EHDL 270055Z AUTO 29010KT 240V020 5000 -SHRA FEW008 FEW015CB BKN024 BKN030 13/12 Q1019 RERA REDZ WHT
2:25 am
M
57 °F 4⅜ mi 1.400 ft 240° 240° 11 kt METAR EHDL 270025Z AUTO 24011KT 150V310 7000 DZ FEW007 BKN014 FEW015CB OVC016 14/13 Q1018 GRN
1:55 am
M
57 °F 6¼ mi+ 1.600 ft 240° 240° 15 kt METAR EHDL 262355Z AUTO 24015KT 170V280 9999 -DZ BKN016 OVC019 14/12 Q1018 WHT
1:25 am
M
59 °F 6¼ mi+ 1.600 ft 240° 240° 14 kt METAR EHDL 262325Z AUTO 24014KT 150V290 9999 BKN016 OVC022 15/12 Q1019 WHT
12:55 am
M
59 °F 6¼ mi+ 1.600 ft 230° 230° 14 kt METAR EHDL 262255Z AUTO 23014KT 180V350 9999 BKN016 OVC020 15/11 Q1019 WHT
12:25 am
M
59 °F 6¼ mi+ 1.700 ft 240° 240° 14 kt METAR EHDL 262225Z AUTO 24014KT 170V300 9999 BKN017 OVC021 15/11 Q1019 WHT

26 mai 2022

Temps Code Temps Temp. Vue Base cloud Vent METAR/SPECI
11:55 pm
M
59 °F 6¼ mi+ 1.800 ft 240° 240° 13 kt METAR EHDL 262155Z AUTO 24013KT 150V290 9999 BKN018 BKN022 BKN034 15/11 Q1019 WHT
11:25 pm
V
59 °F 6¼ mi+ 3.400 ft 240° 240° 13 kt METAR EHDL 262125Z AUTO 24013KT 180V290 9999 FEW018 BKN034 OVC038 15/11 Q1019 BLU
10:55 pm
V
61 °F 6¼ mi+ 3.100 ft 240° 240° 14 kt METAR EHDL 262055Z AUTO 24014KT 160V290 9999 FEW020/// BKN031/// BKN037/// 16/11 Q1019 BLU RMK TS INFO NOT AVBL
10:25 pm
M
61 °F 6¼ mi+ 2.200 ft 240° 240° 14 kt METAR EHDL 262025Z AUTO 24014KT 180V280 9999 FEW018/// BKN022/// BKN027/// 16/11 Q1019 WHT RMK TS INFO NOT AVBL
9:55 pm
V
61 °F 6¼ mi+ 3.700 ft 240° 240° 11 kt METAR EHDL 261955Z AUTO 24011KT 190V300 9999 FEW021/// SCT025/// BKN037/// 16/12 Q1019 BLU RMK TS INFO NOT AVBL
9:25 pm
V
61 °F 6¼ mi+ 4.400 ft 250° 250° 13 kt METAR EHDL 261925Z AUTO 25013KT 180V310 9999 FEW038/// BKN044/// OVC049/// 16/12 Q1019 BLU RMK TS INFO NOT AVBL
8:55 pm
V
63 °F 6¼ mi+ 4.600 ft 250° 250° 12 kt METAR EHDL 261855Z AUTO 25012KT 180V310 9999 OVC046/// 17/12 Q1019 BLU RMK TS INFO NOT AVBL
8:25 pm
V
63 °F 6¼ mi+ 4.100 ft 250° 250° 13 - 23 kt METAR EHDL 261825Z AUTO 25013G23KT 190V330 9999 SCT037/// OVC041/// 17/12 Q1019 BLU RMK TS INFO NOT AVBL
7:55 pm
M
63 °F 6¼ mi+ 2.400 ft 260° 260° 13 kt METAR EHDL 261755Z AUTO 26013KT 200V320 9999 BKN024/// OVC028/// 17/11 Q1019 WHT RMK TS INFO NOT AVBL
7:25 pm
M
64 °F 6¼ mi+ 2.700 ft 260° 260° 10 kt METAR EHDL 261725Z AUTO 26010KT 190V330 9999 BKN027/// OVC033/// 18/11 Q1019 BLU RMK TS INFO NOT AVBL
6:55 pm
V
64 °F 6¼ mi+ 3.700 ft 260° 260° 15 kt METAR EHDL 261655Z AUTO 26015KT 200V320 9999 FEW031/// BKN037/// OVC046/// 18/10 Q1019 BLU RMK TS INFO NOT AVBL
6:25 pm
V
64 °F 6¼ mi+ 5.200 ft 250° 250° 15 kt METAR EHDL 261625Z AUTO 25015KT 170V330 9999 FEW034/// SCT039/// BKN052/// 18/10 Q1019 BLU RMK TS INFO NOT AVBL
5:55 pm
V
64 °F 6¼ mi+ 3.500 ft 240° 240° 15 kt METAR EHDL 261555Z AUTO 24015KT 170V310 9999 SCT030/// BKN035/// BKN040/// 18/11 Q1019 BLU RMK TS INFO NOT AVBL
5:25 pm
V
64 °F 6¼ mi+ 7.100 ft 250° 250° 14 - 24 kt METAR EHDL 261525Z AUTO 25014G24KT 140V310 9999 FEW034/// BKN071/// BKN078/// 18/11 Q1019 BLU RMK TS INFO NOT AVBL
4:55 pm
V
64 °F 6¼ mi+ 7.100 ft 250° 250° 15 kt METAR EHDL 261455Z AUTO 25015KT 200V300 9999 SCT035/// SCT040/// OVC071/// 18/10 Q1019 BLU RMK TS INFO NOT AVBL
Données plus anciennes

Télécharge notre application

Un accès facile à toute la météo aéronautique sur ton téléphone portable et ta tablette.
Avec de nombreuses fonctionnalités non disponibles sur le site Web, comme la prise en charge hors ligne et une liste personnelle d'aéroports.

Nous et des tiers suivons ton comportement sur Internet sur notre site Web à l'aide de cookies. Si tu continues, nous supposons que tu acceptes notre politique en matière de cookies. Apprendre plus